Regional Weather Roundup
Issued by NWS

Home | Current Version | Previous Version | Text Only | Print | Product List | Glossary On
Versions: 1 2 3 4 5 6 7 8 9 10 11 12 13 14 15 16 17 18 19 20 21 22 23 24 25 26 27 28 29 30 31 32 33 34 35 36 37 38 39 40 41 42 43 44 45 46 47 48 49 50
000
ASUS43 KBIS 302320
RWRND

NORTH DAKOTA REGIONAL WEATHER ROUNDUP
NATIONAL WEATHER SERVICE BISMARCK ND
600 PM CDT WED JUL 30 2014

NOTE: "FAIR" INDICATES FEW OR NO CLOUDS BELOW 12,000 FEET WITH NO
SIGNIFICANT WEATHER AND/OR OBSTRUCTIONS TO VISIBILITY.


NDZ001>003-009>011-017-310000-
NORTHWEST NORTH DAKOTA

CITY           SKY/WX    TMP DP  RH WIND       PRES   REMARKS
WILLISTON      SUNNY     84  45  25 N6        30.12F
MINOT          MOSUNNY   79  58  48 N9        30.11F
MINOT AFB      SUNNY     77  55  45 N9        30.10F
$$

NDZ018>021-031>035-040>046-310000-
SOUTHWEST NORTH DAKOTA

CITY           SKY/WX    TMP DP  RH WIND       PRES   REMARKS
BISMARCK       CLOUDY    81  55  40 E6        30.10F
DICKINSON      SUNNY     83  50  31 N8        30.13F
GARRISON         N/A     78  58  49 NE5       30.12F
HETTINGER ARPT MOSUNNY   82  51  34 NE6       30.16F
$$

NDZ004>008-012>016-024-026-027-054-310000-
NORTHEAST NORTH DAKOTA

CITY           SKY/WX    TMP DP  RH WIND       PRES   REMARKS
GRAND FORKS    MOSUNNY   81  58  45 N6        30.04F
GRND FRKS AFB  SUNNY     80  58  46 N8        30.06F
DEVILS LAKE    MOSUNNY   79  55  44 N9        30.07F
$$

NDZ022-023-025-028>030-036>039-047>053-310000-
SOUTHEAST NORTH DAKOTA

CITY           SKY/WX    TMP DP  RH WIND       PRES   REMARKS
FARGO          MOSUNNY   81  54  39 NW10      30.06F
JAMESTOWN      SUNNY     78  51  38 NW7       30.10F
$$




USA.gov is the U.S. government's official web portal to all federal, state and local government web resources and services.